Date String (YYYY-MM-DD hh:mm:ss) UTC,Instrument flags,absolute air pressure of the measurement (hPa),sample flow rate (lpm),inlet stack bypass flow (lpm),air temperature of the measurement (°C),ambient temperature measured by the external sensor (°C),aerosol sample conditioner tube jacket temperature (°C),OPC LED temperature (°C),internal box temperature (°C),relative humidity of the measurement (%),span deviation,mass concentration of particles derived from Lorenz-Mie calculation of OPC scattering (μg/m³),mass concentration of particles derived from Lorenz-Mie calculation of OPC scattering (μg/m³),mass concentration of particles derived from Lorenz-Mie calculation of OPC scattering (μg/m³)
DateTimeUTC,F1_M11,P_M11,Q1_M11,Q2_M11,T1_M11,T2_M11,T3_M11,T4_M11,T5_M11,U1_M11,ZSPAN_M11,X2_M11,X0_M11,X1_M11
2023-10-23 01:00:00,SystemResetWarning,0824.7,4.99,000.00,028.6,026.9,000.0,036.9,030.3,15.9,0000.0,0005.13,0018.03,0003.45
2023-10-23 01:01:00,SystemResetWarning,0824.7,4.99,000.00,028.5,025.0,000.0,036.8,030.1,16.0,0000.0,0005.20,0019.35,0003.46
2023-10-23 01:02:00,SystemResetWarning,0824.8,5.01,000.00,028.4,024.4,000.0,036.8,030.0,16.0,0000.0,0005.21,0019.86,0003.47
2023-10-23 01:03:00,SystemResetWarning,0824.7,4.99,000.00,028.3,024.6,000.0,036.8,029.7,16.1,0000.0,0005.23,0019.35,0003.48
2023-10-23 01:04:00,SystemResetWarning,0824.7,5.01,000.00,028.2,024.9,000.0,036.8,029.7,16.2,0000.0,0005.17,0018.80,0003.48
2023-10-23 01:05:00,SystemResetWarning,0824.8,5.01,000.00,028.2,025.4,000.0,036.8,029.8,16.2,0000.0,0005.16,0018.52,0003.49
2023-10-23 01:06:00,SystemResetWarning,0824.8,5.00,000.00,028.2,025.7,000.0,036.7,029.8,16.2,0000.0,0005.16,0017.97,0003.49
2023-10-23 01:07:00,SystemResetWarning,0824.7,5.00,000.00,028.2,026.1,000.0,036.7,029.9,16.2,0000.0,0005.15,0017.40,0003.49
2023-10-23 01:08:00,SystemResetWarning,0824.8,5.00,000.00,028.2,026.3,000.0,036.7,030.0,16.2,0000.0,0005.11,0017.28,0003.49
2023-10-23 01:09:00,SystemResetWarning,0824.8,5.00,000.00,028.3,026.6,000.0,036.7,030.0,16.2,0000.0,0005.16,0017.69,0003.50
2023-10-23 01:10:00,SystemResetWarning,0824.8,5.01,000.00,028.3,026.7,000.0,036.8,030.0,16.2,0000.0,0005.28,0017.80,0003.51
2023-10-23 01:11:00,SystemResetWarning,0824.8,5.00,000.00,028.3,026.9,000.0,036.8,030.1,16.2,0000.0,0005.35,0017.81,0003.53
2023-10-23 01:12:00,SystemResetWarning,0824.8,5.00,000.00,028.4,027.0,000.0,036.8,030.1,16.1,0000.0,0005.27,0016.42,0003.53
2023-10-23 01:13:00,SystemResetWarning,0824.8,5.00,000.00,028.4,027.2,000.0,036.8,030.1,16.1,0000.0,0005.25,0017.30,0003.53
2023-10-23 01:14:00,SystemResetWarning,0824.9,5.00,000.00,028.4,027.2,000.0,036.8,030.2,16.0,0000.0,0005.21,0017.36,0003.52
2023-10-23 01:15:00,SystemResetWarning,0824.9,5.00,000.00,028.5,027.3,000.0,036.8,030.2,16.0,0000.0,0005.19,0017.46,0003.52
2023-10-23 01:16:00,SystemResetWarning,0824.9,5.00,000.00,028.5,027.4,000.0,036.8,030.3,15.9,0000.0,0005.19,0017.22,0003.51
2023-10-23 01:17:00,SystemResetWarning,0824.9,5.00,000.00,028.5,027.5,000.0,036.9,030.3,15.9,0000.0,0005.13,0017.18,0003.49
2023-10-23 01:18:00,SystemResetWarning,0824.9,5.00,000.00,028.6,027.1,000.0,036.9,030.4,15.8,0000.0,0005.16,0017.64,0003.50
2023-10-23 01:19:00,SystemResetWarning,0824.9,4.99,000.00,028.5,025.2,000.0,036.8,030.2,15.9,0000.0,0005.23,0017.68,0003.51
2023-10-23 01:20:00,SystemResetWarning,0824.9,5.02,000.00,028.4,024.4,000.0,036.8,030.0,15.9,0000.0,0005.21,0016.91,0003.50
2023-10-23 01:21:00,SystemResetWarning,0824.9,5.00,000.00,028.3,024.6,000.0,036.8,029.8,16.0,0000.0,0005.19,0017.09,0003.50
2023-10-23 01:22:00,SystemResetWarning,0824.9,4.99,000.00,028.2,024.9,000.0,036.8,029.8,16.1,0000.0,0005.20,0017.42,0003.49
2023-10-23 01:23:00,SystemResetWarning,0824.9,5.00,000.00,028.2,025.3,000.0,036.8,029.8,16.1,0000.0,0005.24,0018.18,0003.48
2023-10-23 01:24:00,SystemResetWarning,0824.9,5.00,000.00,028.2,025.7,000.0,036.8,029.8,16.1,0000.0,0005.28,0017.59,0003.48
2023-10-23 01:25:00,SystemResetWarning,0824.9,5.01,000.00,028.2,026.0,000.0,036.8,029.9,16.1,0000.0,0005.29,0017.64,0003.49
2023-10-23 01:26:00,SystemResetWarning,0824.9,4.99,000.00,028.2,026.3,000.0,036.8,030.0,16.1,0000.0,0005.33,0018.27,0003.49
2023-10-23 01:27:00,SystemResetWarning,0824.9,4.99,000.00,028.3,026.5,000.0,036.8,030.0,16.0,0000.0,0005.38,0020.04,0003.49
2023-10-23 01:28:00,SystemResetWarning,0824.9,5.00,000.00,028.3,026.7,000.0,036.8,030.0,16.0,0000.0,0005.46,0022.52,0003.50
2023-10-23 01:29:00,SystemResetWarning,0824.9,5.00,000.00,028.3,026.8,000.0,036.8,030.1,15.9,0000.0,0005.48,0023.71,0003.51
2023-10-23 01:30:00,SystemResetWarning,0824.9,5.01,000.00,028.3,027.0,000.0,036.8,030.1,15.9,0000.0,0005.42,0023.49,0003.50
2023-10-23 01:31:00,SystemResetWarning,0824.9,5.01,000.00,028.4,027.1,000.0,036.8,030.1,15.9,0000.0,0005.41,0023.21,0003.50
2023-10-23 01:32:00,SystemResetWarning,0824.9,5.00,000.00,028.4,027.2,000.0,036.8,030.2,15.8,0000.0,0005.41,0022.86,0003.51
2023-10-23 01:33:00,SystemResetWarning,0824.9,4.98,000.00,028.4,027.3,000.0,036.8,030.2,15.8,0000.0,0005.35,0022.49,0003.52
2023-10-23 01:34:00,SystemResetWarning,0824.9,4.99,000.00,028.5,027.3,000.0,036.9,030.3,15.8,0000.0,0005.31,0022.96,0003.52
2023-10-23 01:35:00,SystemResetWarning,0824.9,5.01,000.00,028.5,027.4,000.0,036.9,030.3,15.7,0000.0,0005.31,0023.34,0003.53
2023-10-23 01:36:00,SystemResetWarning,0824.9,5.01,000.00,028.5,027.4,000.0,036.9,030.3,15.7,0000.0,0005.27,0022.57,0003.52
2023-10-23 01:37:00,SystemResetWarning,0824.9,5.01,000.00,028.6,027.5,000.0,036.9,030.3,15.6,0000.0,0005.29,0021.78,0003.52
2023-10-23 01:38:00,SystemResetWarning,0824.9,4.98,000.00,028.6,027.4,000.0,036.9,030.4,15.6,0000.0,0005.26,0020.44,0003.53
2023-10-23 01:39:00,SystemResetWarning,0824.9,4.99,000.00,028.6,025.6,000.0,036.9,030.2,15.6,0000.0,0005.23,0018.50,0003.54
2023-10-23 01:40:00,SystemResetWarning,0824.9,5.02,000.00,028.5,024.4,000.0,036.8,030.1,15.6,0000.0,0005.26,0017.35,0003.55
2023-10-23 01:41:00,SystemResetWarning,0824.9,4.99,000.00,028.4,024.4,000.0,036.8,029.8,15.7,0000.0,0005.32,0017.21,0003.56
2023-10-23 01:42:00,SystemResetWarning,0824.9,5.00,000.00,028.3,024.7,000.0,036.8,029.7,15.8,0000.0,0005.36,0018.13,0003.56
2023-10-23 01:43:00,SystemResetWarning,0824.9,5.00,000.00,028.2,025.1,000.0,036.8,029.8,15.8,0000.0,0005.37,0019.21,0003.57
2023-10-23 01:44:00,SystemResetWarning,0824.9,5.00,000.00,028.2,025.5,000.0,036.8,029.8,15.8,0000.0,0005.35,0019.62,0003.57
2023-10-23 01:45:00,SystemResetWarning,0824.9,4.99,000.00,028.2,025.8,000.0,036.8,029.8,15.8,0000.0,0005.38,0018.69,0003.58
2023-10-23 01:46:00,SystemResetWarning,0824.9,5.00,000.00,028.2,026.1,000.0,036.8,029.9,15.8,0000.0,0005.41,0017.14,0003.59
2023-10-23 01:47:00,SystemResetWarning,0824.9,5.00,000.00,028.2,026.3,000.0,036.8,030.0,15.8,0000.0,0005.47,0017.24,0003.60
2023-10-23 01:48:00,SystemResetWarning,0824.9,5.00,000.00,028.3,026.6,000.0,036.8,030.0,15.8,0000.0,0005.44,0017.30,0003.61
2023-10-23 01:49:00,SystemResetWarning,0824.9,4.99,000.00,028.3,026.7,000.0,036.8,030.1,15.8,0000.0,0005.41,0017.25,0003.61
2023-10-23 01:50:00,SystemResetWarning,0824.9,5.00,000.00,028.3,026.9,000.0,036.8,030.1,15.8,0000.0,0005.41,0017.02,0003.62
2023-10-23 01:51:00,SystemResetWarning,0824.9,5.00,000.00,028.3,027.0,000.0,036.8,030.1,15.7,0000.0,0005.38,0017.21,0003.62
2023-10-23 01:52:00,SystemResetWarning,0824.9,5.00,000.00,028.4,027.1,000.0,036.8,030.2,15.7,0000.0,0005.32,0016.90,0003.63
2023-10-23 01:53:00,SystemResetWarning,0824.9,5.00,000.00,028.4,027.2,000.0,036.8,030.2,15.6,0000.0,0005.27,0016.82,0003.64
2023-10-23 01:54:00,SystemResetWarning,0824.9,5.01,000.00,028.4,027.2,000.0,036.8,030.2,15.6,0000.0,0005.31,0015.91,0003.65
2023-10-23 01:55:00,SystemResetWarning,0824.9,5.00,000.00,028.5,027.3,000.0,036.9,030.3,15.6,0000.0,0005.37,0015.41,0003.67
2023-10-23 01:56:00,SystemResetWarning,0824.9,5.01,000.00,028.5,027.3,000.0,036.9,030.3,15.6,0000.0,0005.37,0016.66,0003.68
2023-10-23 01:57:00,SystemResetWarning,0824.9,5.00,000.00,028.5,027.4,000.0,036.9,030.3,15.5,0000.0,0005.38,0017.15,0003.68
2023-10-23 01:58:00,SystemResetWarning,0824.9,4.99,000.00,028.6,027.5,000.0,036.9,030.3,15.4,0000.0,0005.40,0017.01,0003.69
2023-10-23 01:59:00,SystemResetWarning,0824.9,5.00,000.00,028.6,027.5,000.0,036.9,030.4,15.4,0000.0,0005.41,0016.69,0003.70
